Погода в Рождественске

Россия / Пермский край     58°30′59″N   55°14′02″E
темп.,
°C
ветер,
м/с
пор.,
м/с
влажн.,
%
обл.,
%
осадки,
мм/ч
давл.,
гПа
погр.,
м
13 апреля, вт
вт1323:00−1ю11945 0.0 104110
02:00−2ю11955 0.0 104110
05:00−2ююв11965 0.0 104110
08:00+3ююв25895 0.0 1040108
11:00+8ююз357455 0.0 1039391
14:00+12ююз356364 0.0 1037752
17:00+12ююз3767100 0.0 1035602
20:00+8ю2885100 0.0 1033127
14 апреля, ср
ср1423:00+7ююз3128894 0.0 1032217
02:00+6юз21193100 0.0 1031207
05:00+5юз2996100 0.0 1031166
08:00+6юз289595 0.0 1031191
11:00+12юз477158 0.0 1030437
14:00+16зюз465034 0.0 1029983
17:00+17зюз365154 0.0 10271154
20:00+12юз227376 0.0 102618
15 апреля, чт
чт1523:00+9юз248542 0.0 102658
02:00+8юз289069 0.0 1025136
05:00+7ююз289282 0.0 1024149
08:00+8ююз39845 0.0 1023265
11:00+13юз476244 0.0 1021586
14:00+16зюз575160 0.0 10201223
17:00+17зюз475262 0.0 10181655
20:00+13зюз2670100 0.0 1018134
16 апреля, пт
пт1623:00+11с4880100 0.1 1018323
02:00+7ссв4785100 0.0 1019472
05:00+4ссв4987100 0.0 1020515
08:00+3ссв4992100 0.0 1021605
11:00+4ссв5767100 0.1 1021780
14:00+4св4655100 0.2 1021907
17:00+6всв455340 0.3 10211424
20:00+3всв247721 0.1 1021146
17 апреля, сб
сб1723:00+1ссв239114 0.3 102267
02:000с389333 0.3 1021369
05:00−1с269056 0.3 1021330
08:000ссв258037 0.0 1022576
11:00+3св3550100 0.1 10211829
14:00+5ссв3640100 0.1 10222116
17:00+4с5744100 0.2 10231834
20:00+1с696399 0.2 10261295